Wind_Speed
101 109 113 109 108 113 116 110 102 99 102 98 83 73 66 67 73 68 65 60 55 54 53 47 49 49 48 50 49 48 46 41 37 23 21 21 18 17 22 24 26 27 27 27
94 103 113 116 112 114 113 113 108 105 110 101 82 78 72 71 75 68 63 59 55 53 53 50 51 47 49 47 49 46 45 43 41 28 22 25 26 23 23 27 30 32 28 31
88 96 107 117 117 116 117 118 119 114 112 98 88 82 81 74 77 70 64 58 54 53 54 54 51 48 50 47 50 47 44 44 45 32 27 25 28 31 29 31 32 31 33 30
81 90 98 111 119 118 121 125 118 112 108 99 90 86 81 76 76 70 66 64 58 56 57 54 51 51 47 47 49 49 46 46 47 34 27 28 30 33 36 33 33 32 32 28
75 83 91 98 109 118 124 118 118 114 104 101 96 89 80 75 76 70 66 63 62 58 56 55 52 54 52 50 48 49 49 48 43 36 29 27 27 26 27 28 24 21 24 26
71 75 84 92 103 114 111 105 113 115 108 105 101 86 80 80 86 76 70 63 61 58 55 61 58 52 52 46 45 49 49 45 43 36 29 22 21 31 23 20 23 24 25 28
66 69 76 85 96 96 92 98 108 108 106 103 94 93 88 84 86 82 78 70 65 63 60 56 54 51 55 50 48 50 48 44 43 36 27 20 31 30 27 27 26 25 27 29
60 65 69 81 88 87 87 93 96 100 103 102 104 98 93 88 91 86 82 73 66 69 68 64 58 53 53 49 48 49 48 45 43 35 29 25 30 32 31 30 27 29 31 32
57 61 67 73 78 79 83 84 88 94 95 95 102 101 96 90 89 90 82 79 73 72 66 66 62 60 54 48 45 47 49 48 43 36 30 28 36 32 34 30 27 34 35 32
53 58 63 68 72 72 74 77 83 87 89 98 102 103 100 94 91 88 87 80 71 69 63 58 54 51 46 43 48 51 49 47 41 34 30 32 37 33 32 33 38 34 34 32
52 55 60 63 64 65 66 71 73 79 91 94 94 98 102 96 95 90 88 85 79 73 67 62 54 52 47 46 46 49 51 46 39 36 30 32 39 34 34 38 40 37 35 33
47 47 49 52 53 57 59 66 70 76 87 85 83 84 86 87 90 92 88 80 72 65 59 56 56 52 48 44 48 50 49 47 43 37 32 36 40 39 39 38 39 41 40 38
40 41 43 46 49 54 59 63 66 71 77 82 82 85 85 85 82 81 75 74 74 67 60 60 55 52 45 42 45 50 50 46 42 38 37 41 42 43 42 39 40 43 45 44
37 38 42 45 52 56 58 59 64 69 73 76 80 83 81 81 78 74 74 71 65 63 62 58 51 46 48 49 50 48 46 45 43 40 40 41 42 43 44 44 43 45 48 49
39 42 47 50 54 57 58 63 67 67 66 68 72 72 77 77 74 70 68 68 65 64 61 57 54 50 50 50 49 44 46 43 45 42 40 41 44 46 47 47 47 47 49 52
38 42 46 51 55 56 59 62 65 64 66 64 67 68 70 71 69 67 63 63 65 62 59 56 53 52 51 51 44 47 50 50 47 48 48 45 45 48 50 52 52 53 54 56
43 46 50 53 56 60 59 58 63 64 63 64 59 58 56 59 61 61 60 62 61 60 61 58 53 49 55 52 46 52 53 55 53 55 55 52 50 50 51 53 56 58 59 60
49 52 57 61 63 64 68 69 65 59 52 48 46 44 44 45 46 47 49 50 52 54 56 53 50 53 56 51 47 51 56 57 59 57 54 55 56 59 58 57 59 61 63 64
53 57 58 61 66 68 66 63 60 54 47 43 43 42 36 17 33 34 30 24 24 35 38 40 46 47 52 55 55 58 59 63 60 59 58 57 61 62 66 68 64 64 65 67
56 60 64 64 63 63 63 57 53 49 47 49 47 52 48 50 43 39 27 27 26 37 34 36 43 47 46 54 56 61 62 63 67 69 70 69 68 71 73 72 68 67 69 70
59 64 67 62 59 53 49 50 52 52 58 56 55 54 56 58 49 44 49 43 34 56 52 48 53 54 62 69 66 62 65 68 69 71 75 76 77 78 76 74 74 75 75 73
61 58 58 60 59 57 54 51 49 53 52 57 58 61 58 54 52 56 54 57 58 67 67 66 61 59 60 62 63 65 66 66 70 73 76 77 77 77 78 80 81 81 80 80
62 60 61 62 61 59 55 52 52 50 60 59 60 58 59 66 66 63 65 70 73 76 74 71 70 74 69 66 68 72 73 67 66 71 74 77 80 80 82 84 86 86 85 84
64 64 63 61 61 62 63 59 50 52 60 66 68 68 65 66 66 73 73 76 80 80 74 66 65 67 68 68 69 72 72 73 71 70 74 76 76 76 79 83 86 86 87 86
52 48 57 60 61 63 60 61 61 58 60 63 67 69 70 69 70 69 60 56 55 52 57 61 60 57 60 65 70 71 73 75 77 76 72 72 72 74 77 81 82 82 84 88
12 27 30 28 35 57 49 62 61 64 61 57 50 52 54 50 56 57 60 56 56 55 56 59 58 62 69 69 68 66 64 65 66 67 69 70 72 74 76 78 81 85 87 90
14 9 16 18 19 38 37 37 50 53 56 56 52 51 53 52 51 53 56 56 59 62 65 65 68 68 65 64 62 60 59 62 65 68 70 72 75 77 80 83 86 91 94 95
Wind_Direction
229 229 228 226 226 228 228 228 227 230 233 234 235 238 241 247 250 254 255 257 261 267 271 278 283 291 296 298 306 311 311 323 320 281 267 262 252 240 237 243 247 253 260 266
229 226 226 225 224 226 227 228 226 227 231 231 231 237 238 244 249 251 254 256 259 264 269 274 282 288 290 295 303 307 307 318 324 293 270 257 256 255 248 247 251 257 264 264
227 225 224 225 225 223 225 226 227 226 229 229 228 233 237 240 245 245 248 252 254 261 269 275 279 281 287 292 299 300 303 314 321 299 279 267 260 256 249 249 256 260 264 267
225 224 224 224 225 225 226 226 228 226 229 231 232 231 235 238 244 246 249 253 258 263 267 270 273 278 284 291 292 300 299 308 313 299 279 265 256 256 256 253 253 259 267 273
222 222 221 224 225 226 226 228 228 228 226 229 226 226 231 236 241 244 248 251 255 259 262 265 268 276 284 287 290 295 294 303 309 299 277 270 270 261 248 253 262 263 264 266
219 219 221 221 223 225 229 229 229 228 225 227 228 227 228 231 235 237 242 244 249 252 257 263 269 275 277 283 288 291 293 296 306 295 279 276 277 260 264 262 262 265 271 271
217 217 218 220 222 226 226 228 228 229 228 227 228 227 226 228 237 237 241 243 247 251 254 258 263 268 274 279 285 286 291 294 304 291 273 270 262 271 269 267 267 270 272 272
215 214 215 218 220 222 222 225 226 227 227 225 226 225 225 228 234 236 239 242 243 245 251 257 261 265 271 277 280 283 289 291 302 291 269 264 263 265 273 272 274 278 274 273
212 213 212 215 218 218 219 220 223 225 225 223 223 224 225 227 234 235 238 241 244 250 254 259 260 263 269 272 276 279 285 289 298 286 262 260 263 263 273 274 275 271 276 280
209 209 211 211 214 215 215 216 219 221 222 222 221 223 224 225 232 234 236 239 243 249 250 252 254 257 262 268 274 274 282 289 296 279 259 260 261 267 271 270 263 273 278 278
207 208 210 210 209 211 208 212 213 215 219 222 223 224 223 226 231 233 236 239 244 245 249 250 251 256 257 266 275 278 279 289 288 269 262 263 263 263 267 266 269 274 279 277
207 207 206 207 204 204 203 205 207 210 214 218 221 221 224 227 231 232 233 236 237 239 244 246 248 250 257 265 268 277 280 286 287 270 268 265 264 266 269 272 272 273 276 277
199 199 199 198 194 196 197 199 201 205 209 214 217 218 218 220 224 226 228 235 238 239 240 243 243 246 254 257 269 275 280 280 277 271 270 268 263 263 268 272 272 269 271 275
189 188 188 189 185 190 192 192 194 198 204 208 213 217 219 221 224 226 228 227 229 233 235 238 242 246 251 259 265 273 269 273 266 260 265 271 271 267 268 270 273 273 272 273
179 180 183 182 182 185 184 185 187 192 199 206 210 213 216 219 221 223 224 224 226 231 234 241 244 248 255 259 263 254 260 258 262 264 263 268 275 272 267 269 271 273 275 276
175 178 177 175 176 177 179 179 181 187 194 201 208 212 216 218 219 220 222 225 226 229 233 237 242 247 251 251 248 251 248 249 252 261 266 265 272 274 272 268 270 273 275 276
166 167 167 169 170 170 169 172 179 185 191 197 199 206 213 218 221 221 222 226 227 231 233 236 242 244 246 251 248 246 244 247 252 260 266 269 271 274 275 274 271 271 272 274
162 163 165 165 165 168 168 171 177 182 187 192 194 197 202 207 211 215 219 223 227 232 236 237 234 234 239 248 252 260 253 248 252 261 266 269 269 273 275 277 276 275 276 276
160 161 161 163 162 162 166 167 172 175 178 177 183 183 171 182 202 186 182 194 213 221 224 225 231 236 237 242 249 261 260 257 262 264 262 265 268 271 275 279 281 279 279 280
156 158 152 149 151 156 157 159 160 163 169 169 173 175 166 180 174 184 194 197 207 235 240 250 253 246 241 240 250 254 256 257 259 262 265 265 268 271 274 278 281 282 283 286
150 148 148 150 151 152 157 164 164 167 165 166 165 165 171 177 175 176 185 210 217 223 235 231 238 242 242 244 250 252 254 255 258 262 264 266 267 270 274 276 280 282 285 288
134 136 142 145 150 154 155 158 159 167 172 175 172 172 169 180 189 196 203 199 215 222 224 231 239 240 242 242 247 255 259 261 261 260 262 265 267 269 272 275 278 281 285 288
142 147 149 149 155 155 159 159 168 175 179 176 180 184 188 195 196 203 211 213 218 223 225 231 238 241 247 253 259 264 261 264 268 266 266 267 268 270 272 275 278 280 283 287
154 156 156 162 164 167 167 171 181 184 184 189 192 193 199 201 206 212 211 217 219 219 222 230 240 250 256 261 265 266 266 268 269 270 271 272 274 274 275 277 279 281 284 286
162 171 171 174 178 179 180 184 190 197 200 199 200 205 207 211 213 219 221 227 229 236 236 240 248 259 268 270 274 273 271 271 272 273 274 275 276 278 279 279 281 284 286 287
165 183 191 197 196 196 197 202 201 205 212 211 211 216 218 225 224 224 226 230 235 242 247 250 256 265 271 271 271 272 272 272 273 275 277 277 278 278 280 282 283 283 284 285
206 221 215 233 230 223 224 222 216 218 220 220 226 231 233 237 235 234 238 242 247 250 251 259 272 274 270 269 270 273 274 274 274 276 277 278 280 280 281 283 284 285 286 288
Height
10281 10299 10318 10336 10354 10367 10380 10406 10431 10445 10444 10461 10503 10521 10532 10534 10530 10543 10552 10558 10562 10564 10567 10570 10570 10572 10574 10573 10573 10571 10567 10564 10562 10561 10562 10565 10565 10565 10568 10570 10571 10573 10575 10575
10252 10272 10291 10309 10323 10343 10363 10384 10407 10416 10421 10448 10496 10504 10515 10518 10518 10533 10540 10546 10552 10555 10556 10560 10562 10564 10565 10565 10566 10564 10561 10558 10555 10555 10555 10556 10558 10558 10559 10560 10562 10563 10567 10566
10227 10246 10263 10282 10298 10319 10337 10351 10364 10390 10401 10448 10473 10487 10497 10506 10504 10520 10529 10535 10541 10545 10547 10551 10553 10555 10556 10556 10556 10557 10555 10551 10551 10548 10548 10550 10550 10552 10553 10553 10554 10556 10558 10558
10204 10223 10240 10256 10274 10296 10306 10322 10343 10383 10405 10435 10462 10473 10484 10493 10497 10513 10519 10525 10533 10535 10537 10541 10541 10545 10547 10549 10548 10549 10547 10545 10544 10541 10541 10541 10542 10542 10544 10545 10546 10548 10548 10550
10184 10200 10216 10236 10254 10269 10277 10308 10335 10362 10398 10409 10427 10450 10476 10486 10483 10499 10508 10514 10517 10522 10527 10529 10530 10534 10539 10539 10541 10540 10540 10539 10537 10533 10532 10532 10534 10533 10534 10536 10538 10539 10539 10540
10166 10182 10201 10215 10228 10235 10267 10300 10320 10340 10374 10390 10408 10449 10466 10470 10460 10482 10491 10498 10502 10511 10514 10517 10521 10526 10528 10531 10534 10533 10532 10531 10529 10526 10524 10525 10526 10522 10527 10529 10529 10529 10530 10530
10153 10168 10183 10198 10206 10233 10267 10288 10306 10330 10358 10380 10411 10424 10440 10453 10451 10468 10476 10487 10497 10499 10500 10507 10511 10517 10518 10522 10525 10524 10522 10523 10522 10518 10519 10522 10516 10518 10519 10520 10521 10522 10521 10521
10142 10155 10169 10181 10194 10222 10245 10268 10283 10311 10337 10369 10377 10404 10421 10434 10432 10454 10466 10480 10483 10479 10489 10498 10502 10508 10510 10513 10514 10515 10515 10514 10514 10512 10511 10513 10512 10511 10511 10512 10514 10511 10510 10511
10131 10143 10155 10167 10184 10205 10229 10250 10272 10296 10320 10350 10363 10384 10404 10422 10421 10434 10458 10465 10467 10472 10483 10490 10495 10497 10502 10503 10504 10504 10505 10505 10506 10504 10503 10505 10500 10505 10503 10505 10506 10500 10500 10502
10122 10132 10144 10159 10174 10194 10219 10240 10261 10283 10309 10324 10345 10367 10388 10401 10404 10429 10437 10451 10457 10464 10474 10480 10484 10487 10490 10493 10493 10494 10496 10496 10496 10494 10495 10495 10492 10494 10496 10494 10490 10494 10495 10494
10113 10123 10135 10150 10170 10187 10208 10229 10249 10271 10292 10310 10333 10350 10372 10388 10403 10422 10431 10433 10448 10457 10464 10469 10473 10478 10479 10481 10483 10483 10486 10488 10486 10486 10486 10486 10482 10486 10485 10483 10484 10486 10486 10485
10108 10120 10135 10149 10166 10184 10201 10219 10237 10259 10276 10302 10322 10346 10366 10386 10392 10401 10412 10432 10439 10446 10449 10457 10461 10467 10470 10472 10472 10473 10477 10478 10478 10477 10476 10475 10472 10473 10475 10475 10476 10476 10476 10474
10107 10119 10132 10146 10163 10177 10193 10210 10230 10251 10272 10289 10311 10331 10344 10360 10377 10389 10405 10420 10427 10434 10440 10443 10448 10454 10459 10461 10463 10463 10467 10467 10468 10467 10466 10464 10463 10463 10465 10466 10466 10466 10465 10463
10107 10119 10130 10142 10158 10170 10187 10208 10226 10245 10261 10280 10296 10314 10334 10349 10365 10381 10395 10404 10413 10418 10424 10430 10437 10443 10448 10451 10454 10456 10456 10457 10458 10457 10455 10454 10454 10454 10454 10454 10453 10453 10453 10451
10107 10117 10128 10139 10153 10168 10184 10199 10218 10239 10260 10276 10290 10308 10324 10339 10355 10369 10380 10390 10398 10408 10415 10421 10428 10433 10436 10439 10443 10448 10445 10445 10446 10446 10445 10446 10445 10444 10442 10442 10441 10440 10439 10438
10110 10119 10130 10144 10156 10170 10185 10201 10221 10239 10254 10272 10284 10303 10319 10333 10346 10358 10369 10378 10387 10395 10402 10409 10417 10420 10423 10425 10434 10435 10432 10432 10433 10434 10435 10435 10435 10434 10433 10431 10430 10428 10426 10423
10112 10123 10135 10147 10161 10176 10194 10214 10226 10238 10255 10265 10283 10300 10318 10329 10339 10351 10360 10369 10376 10383 10392 10399 10404 10408 10410 10416 10424 10421 10420 10422 10421 10421 10422 10422 10422 10423 10422 10420 10418 10416 10413 10411
10117 10127 10137 10148 10161 10176 10189 10204 10223 10241 10257 10271 10287 10302 10316 10326 10335 10345 10354 10362 10369 10376 10384 10390 10393 10396 10403 10409 10411 10408 10407 10408 10409 10410 10411 10410 10409 10409 10409 10408 10405 10403 10401 10397
10127 10136 10147 10156 10168 10183 10199 10212 10227 10246 10264 10279 10291 10302 10312 10325 10334 10340 10348 10357 10363 10370 10375 10381 10383 10390 10396 10402 10400 10396 10394 10395 10396 10397 10397 10397 10396 10395 10394 10392 10391 10388 10385 10380
10140 10149 10161 10173 10183 10196 10205 10222 10234 10249 10262 10271 10284 10296 10310 10323 10330 10337 10345 10352 10358 10363 10369 10371 10374 10378 10384 10388 10388 10384 10382 10381 10382 10381 10380 10380 10380 10379 10377 10376 10374 10371 10366 10362
10156 10162 10172 10186 10198 10210 10221 10231 10241 10253 10262 10274 10283 10292 10306 10315 10325 10332 10339 10348 10350 10356 10360 10360 10359 10364 10367 10368 10371 10370 10368 10367 10367 10366 10365 10364 10363 10362 10361 10359 10356 10352 10349 10345
10175 10183 10193 10198 10208 10216 10225 10236 10246 10257 10266 10276 10284 10293 10301 10313 10320 10324 10331 10339 10342 10344 10346 10348 10352 10353 10351 10352 10354 10354 10355 10356 10354 10350 10349 10348 10348 10346 10344 10341 10337 10333 10330 10325
10184 10191 10198 10204 10213 10220 10230 10238 10247 10255 10265 10274 10280 10288 10295 10301 10308 10312 10316 10319 10324 10329 10334 10338 10340 10339 10341 10342 10342 10342 10341 10340 10338 10335 10334 10333 10331 10328 10325 10322 10319 10314 10309 10304
10194 10201 10207 10213 10219 10225 10232 10241 10250 10254 10259 10266 10273 10279 10286 10292 10298 10303 10307 10310 10313 10319 10327 10331 10330 10328 10329 10329 10327 10326 10324 10322 10320 10318 10316 10313 10311 10308 10305 10302 10299 10294 10289 10283
10203 10209 10215 10219 10225 10232 10238 10242 10247 10251 10256 10262 10269 10275 10280 10285 10290 10296 10302 10306 10315 10318 10318 10315 10314 10314 10313 10311 10310 10308 10306 10305 10303 10301 10298 10294 10292 10290 10287 10283 10278 10274 10268 10262
10214 10219 10223 10229 10233 10234 10238 10241 10243 10250 10254 10260 10266 10271 10276 10280 10287 10290 10294 10297 10300 10299 10299 10299 10299 10301 10300 10296 10293 10290 10288 10286 10285 10282 10279 10276 10273 10270 10267 10263 10258 10252 10245 10239
10222 10227 10231 10234 10236 10238 10240 10243 10246 10249 10252 10257 10261 10264 10267 10270 10275 10278 10282 10283 10281 10282 10283 10284 10285 10284 10281 10279 10276 10273 10271 10268 10266 10263 10260 10257 10253 10250 10246 10241 10236 10230 10223 10216